User: anonymous   Login
Location: Unspecified
(0.0000°N, 0.0000°E)
Time: 08:11:03
(UTC+00:00)
Language:

Envisat - Orbit

View from above orbital plane
View from above orbital plane
View from above satellite
View from above satellite

Ground track
Ground track

The orbit data is extracted from the following two-line orbital elements,

1 27386U 02009A   21130.94381083  .00000028  00000-0  22601-4 0  9995
2 27386  98.1482 126.9182 0001312  85.7206 336.7742 14.38024884  5610
Epoch (UTC): 10 May 2021 22:39:05
Eccentricity: 0.0001312
inclination: 98.1482°
perigee height: 764 km
apogee height: 766 km
right ascension of ascending node: 126.9182°
argument of perigee: 85.7206°
revolutions per day: 14.38024884
mean anomaly at epoch: 336.7742°
orbit number at epoch: 561

The dashed part of the orbit path shows where the satellite is in the earth's shadow,  

DLR